Flag for Slovenia Weather past 2 weeks in Celje, Slovenia

Now
59 °F

Cool.


Feels Like: 59 °F
Forecast: 53 / 66 °F
Wind: 1 mph from West

Location: Celje

Current Time: Sep 15, 2014 at 11:29:38 AM

Latest Report: Sep 15, 2014 at 10:00 AM


Visibility: N/A

Pressure: 30.05 "Hg

Humidity: 92%

Dew point: 57 °F

Location of CeljeLocation

Historic Weather in Celje — Graph

°F

Celje temperature yesterday

Maximum temperature yesterday: 68 °F (at 5:00 PM)
Minimum temperature yesterday: 54 °F (at 6:00 AM)
Average temperature yesterday: 59 °F

Past Weeks' High & Low Weather Summary

 TemperatureHumidityPressure
High82 °F (Sep 9, 4:00 PM)99% (Sep 7, 4:00 AM)30.06 "Hg (Sep 7, 4:00 AM)
Low52 °F (Sep 8, 7:00 AM)47% (Sep 9, 4:00 PM)29.77 "Hg (Sep 1, 12:00 AM)
Average61 °F87%29.96 "Hg
* Reported Aug 31 10:00 AM — Sep 15 10:00 AM, Celje, Weather by CustomWeather, © 2014

Note: Actual official high and low records may vary slightly from our data, if they occured in-between our weather recording intervals... More about our weather records

Advertising

Celje weather history for previous 24 hours

 ConditionsComfort  
Time TempWeatherWind HumidityBarometerVisibility
10:00 AM
Sep 15
59 °FCool.1 mph92%30.05 "HgN/A
9:00 AM58 °FCool.No wind95%30.04 "HgN/A
8:00 AM57 °FFog.1 mph98%30.04 "Hg2 mi
6:00 AM55 °FFog.1 mph99%30.03 "Hg4 mi
5:00 AM55 °FPassing clouds.1 mph99%30.01 "Hg6 mi
4:00 AM54 °FCool.1 mph97%30.02 "HgN/A
3:00 AM57 °FCool.1 mph98%30.02 "HgN/A
2:00 AM57 °FCool.1 mph98%30.02 "HgN/A
1:00 AM57 °FCool.1 mph98%30.02 "HgN/A
12:00 AM57 °FCool.1 mph98%30.02 "HgN/A
11:00 PM
Sep 14
57 °FCool.1 mph98%30.03 "HgN/A
10:00 PM57 °FCool.1 mph98%30.03 "HgN/A
9:00 PM57 °FCool.1 mph96%30.03 "HgN/A
8:00 PM58 °FOvercast.1 mph95%30.01 "Hg25 mi
7:00 PM60 °FCool.1 mph95%29.99 "HgN/A
6:00 PM61 °FCool.2 mph93%29.99 "HgN/A
5:00 PM68 °FMild.2 mph59%29.96 "HgN/A
4:00 PM68 °FMild.2 mph62%29.97 "HgN/A
3:00 PM67 °FOvercast.5 mph63%29.98 "Hg25 mi
2:00 PM65 °FOvercast.3 mph69%29.99 "Hg25 mi
1:00 PM64 °FMild.3 mph74%30.00 "HgN/A
12:00 PM62 °FCool.2 mph75%30.01 "HgN/A
11:00 AM61 °FCool.2 mph78%30.02 "HgN/A
Weather by CustomWeather, © 2014

See weather overviewHow to use our weather pages